Weather History for Perry, IA

Change the Weather History Date:

Saturday, April 14, 2012

  Actual Average Record
Temperature  
Mean Temperature 59 °F -  
Max Temperature 64 °F 57 °F 86 °F (1954)
Min Temperature 54 °F 36 °F 19 °F (1950)
Degree Days  
Heating Degree Days 6    
Growing Degree Days 9 (Base 50)    
Moisture  
Dew Point 59 °F    
Average Humidity 99    
Maximum Humidity 100    
Minimum Humidity 93    
Precipitation  
Precipitation 1.54 in - - ()
Sea Level Pressure  
Sea Level Pressure 29.74 in    
Wind  
Wind Speed 9 mph (SE)    
Max Wind Speed 23 mph    
Max Gust Speed 39 mph    
Visibility 5 miles    
Events Fog , Rain    
Averages and records for this station are not official NWS values.
T = Trace of Precipitation, MM = Missing Value Source: NWS Daily Summary

Daily Weather History Graph

Daily Weather History Graph

Search for Another Location

Airport:

Trip Planner

Search our weather history database for the weather conditions in past years. The results will help you decide how hot, cold, wet, or windy it might be!

Date:

Astronomy

Apr. 14, 2012 Rise Set
Actual Time 6:37 AM CDT 7:57 PM CDT
Civil Twilight 6:08 AM CDT 8:25 PM CDT
Nautical Twilight 5:33 AM CDT 9:00 PM CDT
Astronomical Twilight 4:57 AM CDT 9:37 PM CDT
Moon 3:06 AM CDT (4/14) 1:45 PM CDT (4/14)
Length of Visible Light 14h 17m
Length of Day
13h 19m
Last Quarter, 37% of the Moon is Illuminated
Apr 14
Last Quarter
Apr 21
New
Apr 29
First Quarter
May 5
Full
May 12
Last Quarter

Hourly Weather History & Observations

Time (CDT) Temp. Dew Point Humidity Pressure Visibility Wind Dir Wind Speed Gust Speed Precip Events Conditions
12:15 AM 55.6 °F 55.6 °F 100% 29.85 in 7.0 mi South 6.9 mph - N/A   Overcast
12:35 AM 56.1 °F 56.1 °F 100% 29.85 in 7.0 mi South 6.9 mph - N/A   Overcast
12:55 AM 55.9 °F 55.9 °F 100% 29.85 in 5.0 mi SSE 8.1 mph - N/A   Overcast
1:15 AM 56.3 °F 56.3 °F 100% 29.85 in 7.0 mi SSE 9.2 mph - N/A   Overcast
1:35 AM 56.3 °F 56.3 °F 100% 29.86 in 5.0 mi South 9.2 mph - N/A   Overcast
1:55 AM 56.3 °F 56.3 °F 100% 29.86 in 3.0 mi South 8.1 mph - N/A   Overcast
2:15 AM 55.9 °F 55.9 °F 100% 29.85 in 1.2 mi South 8.1 mph - N/A   Overcast
2:35 AM 55.9 °F 55.9 °F 100% 29.85 in 0.8 mi SSE 5.8 mph - N/A   Overcast
2:55 AM 55.6 °F 55.6 °F 100% 29.85 in 0.5 mi South 6.9 mph - N/A Fog Fog
3:15 AM 55.6 °F 55.6 °F 100% 29.85 in 0.5 mi South 8.1 mph - N/A Fog Fog
3:35 AM 55.8 °F 55.8 °F 100% 29.85 in 0.8 mi South 6.9 mph - N/A   Overcast
3:55 AM 55.8 °F 55.8 °F 100% 29.84 in 1.2 mi SSW 5.8 mph - N/A   Overcast
4:15 AM 55.8 °F 55.8 °F 100% 29.84 in 0.8 mi SSW 5.8 mph - N/A   Overcast
4:35 AM 55.6 °F 55.6 °F 100% 29.84 in 0.5 mi Calm Calm - N/A Fog Fog
4:55 AM 55.4 °F 55.4 °F 100% 29.84 in 0.5 mi SSE 5.8 mph - N/A Fog Fog
5:15 AM 55.4 °F 55.4 °F 100% 29.83 in 0.5 mi Calm Calm - N/A Fog Fog
5:55 AM 55.4 °F 55.4 °F 100% 29.82 in 0.5 mi South 5.8 mph - N/A Fog Fog
6:15 AM 55.0 °F 55.0 °F 100% 29.81 in 1.0 mi SSE 4.6 mph - N/A   Overcast
6:35 AM 54.7 °F 54.7 °F 100% 29.82 in 0.5 mi SSE 9.2 mph - N/A Fog Fog
6:55 AM 54.9 °F 54.9 °F 100% 29.83 in 0.5 mi South 5.8 mph - N/A Fog Fog
7:15 AM 55.4 °F 55.4 °F 100% 29.84 in 1.2 mi SSE 9.2 mph - N/A   Overcast
7:35 AM 55.6 °F 55.6 °F 100% 29.84 in 2.5 mi SSE 5.8 mph - N/A   Overcast
7:55 AM 56.3 °F 56.3 °F 100% 29.83 in 3.0 mi SE 5.8 mph - N/A   Overcast
8:15 AM 56.7 °F 56.7 °F 100% 29.84 in 3.0 mi SSE 6.9 mph - N/A   Overcast
8:35 AM 57.2 °F 57.2 °F 100% 29.84 in 4.0 mi SSE 9.2 mph - N/A   Overcast
8:55 AM 57.2 °F 57.2 °F 100% 29.84 in 3.0 mi SE 11.5 mph - N/A   Overcast
9:15 AM 57.2 °F 57.2 °F 100% 29.83 in 3.0 mi SSE 10.4 mph - N/A   Overcast
9:35 AM 57.7 °F 57.7 °F 100% 29.83 in 4.0 mi SSE 10.4 mph - N/A   Overcast
9:55 AM 58.1 °F 58.1 °F 100% 29.83 in 5.0 mi SE 9.2 mph - N/A   Overcast
10:15 AM 58.3 °F 58.3 °F 100% 29.83 in 4.0 mi SSE 6.9 mph - N/A   Overcast
10:35 AM 59.0 °F 59.0 °F 100% 29.83 in 4.0 mi SE 5.8 mph - N/A   Overcast
10:55 AM 59.5 °F 59.5 °F 100% 29.83 in 1.8 mi SE 8.1 mph - N/A   Overcast
11:15 AM 60.4 °F 60.4 °F 100% 29.84 in 2.5 mi SSE 8.1 mph - N/A   Overcast
11:35 AM 61.0 °F 61.0 °F 100% 29.83 in 2.0 mi SSE 8.1 mph - N/A   Overcast
11:55 AM 62.1 °F 62.1 °F 100% 29.82 in 4.0 mi ESE 6.9 mph - N/A   Overcast
12:15 PM 64.2 °F 62.8 °F 95% 29.79 in 7.0 mi SE 9.2 mph - N/A   Overcast
12:35 PM 64.9 °F 63.0 °F 93% 29.79 in 7.0 mi ESE 12.7 mph - N/A   Overcast
12:55 PM 63.7 °F 62.6 °F 96% 29.78 in 5.0 mi SE 13.8 mph - N/A   Overcast
1:15 PM 62.8 °F 62.2 °F 98% 29.78 in 5.0 mi SE 10.4 mph - N/A   Overcast
1:35 PM 62.6 °F 62.2 °F 99% 29.76 in 5.0 mi ESE 11.5 mph - N/A   Overcast
1:55 PM 61.7 °F 61.7 °F 100% 29.74 in 4.0 mi East 13.8 mph - N/A   Overcast
2:15 PM 61.9 °F 61.9 °F 100% 29.75 in 5.0 mi ESE 12.7 mph - N/A   Overcast
2:35 PM 62.1 °F 61.9 °F 99% 29.73 in 7.0 mi East 12.7 mph - N/A   Overcast
2:55 PM 62.2 °F 61.9 °F 99% 29.72 in 7.0 mi East 11.5 mph - N/A   Overcast
3:15 PM 62.2 °F 62.1 °F 99% 29.71 in 7.0 mi East 12.7 mph - N/A   Overcast
3:35 PM 61.9 °F 61.9 °F 100% 29.69 in 5.0 mi East 13.8 mph - N/A   Overcast
3:55 PM 62.1 °F 62.1 °F 100% 29.69 in 7.0 mi East 12.7 mph - N/A Rain Light Rain
4:15 PM 61.7 °F 61.7 °F 100% 29.65 in 7.0 mi East 13.8 mph - N/A   Overcast
4:35 PM 61.9 °F 61.9 °F 100% 29.66 in 5.0 mi East 17.3 mph 20.7 mph 0.02 in Rain Light Rain
4:55 PM 61.7 °F 61.7 °F 100% 29.67 in 4.0 mi East 18.4 mph 21.9 mph 0.06 in Rain Light Rain
5:35 PM 61.7 °F 61.7 °F 100% 29.66 in 3.0 mi NE 10.4 mph - 0.12 in Rain Heavy Rain
5:55 PM 61.5 °F 61.5 °F 100% 29.65 in 4.0 mi ENE 13.8 mph 19.6 mph 0.21 in Rain Rain
6:15 PM 61.3 °F 61.3 °F 100% 29.66 in 3.0 mi NNE 8.1 mph 19.6 mph 0.11 in Rain Heavy Rain
6:35 PM 61.0 °F 61.0 °F 100% 29.62 in 3.0 mi NE 13.8 mph - 0.32 in Rain Heavy Rain
6:55 PM 60.8 °F 60.8 °F 100% 29.62 in 2.5 mi NNW 10.4 mph - 0.49 in Rain Heavy Rain
7:15 PM 60.6 °F 60.6 °F 100% 29.62 in 4.0 mi North 15.0 mph 21.9 mph 0.07 in Rain Heavy Rain
7:35 PM 58.3 °F 58.3 °F 100% 29.71 in 1.0 mi WNW 11.5 mph 39.1 mph 0.61 in Rain Heavy Rain
7:55 PM 59.9 °F 59.9 °F 100% 29.67 in 4.0 mi NNE 12.7 mph - 0.73 in Rain Rain
8:15 PM 59.0 °F 59.0 °F 100% 29.53 in 10.0 mi NE 23.0 mph 31.1 mph 0.02 in Rain Light Rain
8:35 PM 59.4 °F 59.4 °F 100% 29.54 in 10.0 mi NE 18.4 mph 33.4 mph 0.02 in Rain Light Rain
8:55 PM 60.1 °F 59.9 °F 99% 29.55 in 7.0 mi NE 19.6 mph 26.5 mph 0.04 in Rain Rain
9:15 PM 59.9 °F 59.9 °F 100% 29.54 in 10.0 mi ENE 13.8 mph 23.0 mph 0.01 in   Mostly Cloudy
9:35 PM 60.3 °F 60.1 °F 99% 29.55 in 10.0 mi East 8.1 mph - 0.01 in   Scattered Clouds
9:55 PM 59.5 °F 59.5 °F 100% 29.55 in 10.0 mi East 8.1 mph - 0.01 in   Scattered Clouds
10:15 PM 58.8 °F 58.8 °F 100% 29.57 in 10.0 mi SE 15.0 mph - N/A   Mostly Cloudy
10:35 PM 59.0 °F 58.6 °F 99% 29.57 in 10.0 mi SE 15.0 mph - N/A   Overcast
10:55 PM 59.0 °F 58.8 °F 99% 29.58 in 10.0 mi SSE 18.4 mph 21.9 mph N/A   Overcast
11:15 PM 58.1 °F 57.4 °F 97% 29.58 in 10.0 mi SE 15.0 mph - N/A   Overcast
11:35 PM 58.1 °F 57.4 °F 97% 29.56 in 10.0 mi SE 16.1 mph - N/A   Overcast
11:55 PM 58.6 °F 57.6 °F 96% 29.54 in 10.0 mi SE 15.0 mph - N/A   Overcast